Location: Bukit Nyuki
(2.5885°N, 113.7476°E)
Time: 16:55:17
(UTC+00:00)

Cosmos 1627 Rocket - Pass Details

Date: 18 May 2021
Orbit: 951 x 1003 km, 82.9° (Epoch: 20 June)

Event Time Altitude Azimuth Distance (km) Brightness Sun altitude
Rises 21:36:13 0° 185° (S) 3,629 7.2 -9.7°
Reaches altitude 10° 21:38:43 10° 185° (S) 2,679 6.6 -9.2°
Maximum altitude 21:44:50 83° 272° (W) 960 4.5 -7.7°
Drops below altitude 10° 21:50:56 10° 1° (N) 2,669 7.1 -6.3°
Sets 21:53:25 0° 2° (N) 3,615 7.8 -5.7°
